Notices

What's New in latest Release from April 7th, 2021:

- Updated Glossary, including Speed of Maximum Gust, and Total Hourly Precipitation

- Updated national and regional climate services offices contacts and prices information

- Addition of station inventory lists for 1981-2010, 1971-2000, and 1961-1990 Normals.

If you haven't already, please take our survey and provide feedback about our website: https://eccc.sondage-survey.ca/f/LanguageSelection.aspx?s=442ca660-fcf1-47c0-95a9-59707d6fd709

Hourly Data Report for April 26, 2012

MIRAMICHI RCS
NEW BRUNSWICK

47°00'34.000" N
65°27'54.000" W
33.00 m
8100989
71744
ACQ

Download Data

Hourly Data (April 2012)
Hourly Data Report for April 26, 2012
TIME
LST
Temp Definition
°C
Dew Point Definition
°C
Rel Hum Definition
%
Precip. Amount Definition
mm

Wind Dir Definition
10's deg

Wind Spd Definition
km/h
Visibility Definition
km
Stn Press Definition
kPa
Hmdx Definition


Wind Chill Definition


Weather Definition


00:00 6.7 5.7 93   4 2   100.21     LegendNANA
01:00 6.8 5.8 93     0   100.14     LegendNANA
02:00 6.5 5.6 94   27 2   100.11     LegendNANA
03:00 6.4 5.4 93   27 2   100.12     LegendNANA
04:00 6.3 5.4 94   25 7   100.14     LegendNANA
05:00 5.7 4.5 92   25 9   100.15     LegendNANA
06:00 5.1 3.5 89   26 6   100.19     LegendNANA
07:00 6.3 3.5 82   25 11   100.25     LegendNANA
08:00 8.6 3.7 71   24 11   100.31     LegendNANA
09:00 10.6 2.8 58   23 15   100.35     LegendNANA
10:00 11.5 3.1 56   24 19   100.40     LegendNANA
11:00 12.8 2.0 48   25 20   100.40     LegendNANA
12:00 12.5 0.8 45   22 22   100.39     LegendNANA
13:00 14.2 0.5 39   24 20   100.41     LegendNANA
14:00 13.5 0.0 39   25 19   100.46     LegendNANA
15:00 14.2 -0.6 36   24 20   100.46     LegendNANA
16:00 14.4 -0.7 35   24 19   100.45     LegendNANA
17:00 14.4 -0.4 36   25 15   100.46     LegendNANA
18:00 13.3 -0.9 37   24 17   100.48     LegendNANA
19:00 12.6 0.6 44   23 4   100.49     LegendNANA
20:00 9.6 3.0 63   14 6   100.50     LegendNANA
21:00 10.5 2.1 56   21 15   100.50     LegendNANA
22:00 9.3 2.1 61   19 15   100.50     LegendNANA
23:00 7.9 1.7 65   19 11   100.43     LegendNANA

Notes on Data Quality.

Legend

  • E = Estimated
  • M = Missing
  • NA = Not Available*
  • [empty] = Indicates an unobserved value
Date modified: